KU4ME Weather Reports


time (UTC)temp
C
wind
direction
speed
KPH
gust
KPH
rain 1hr
cm
rain 24hr
cm
rain mn
cm
humidity
%
barometer
mb
20260505152005 20 104 0.0 0.0 0.00 0.00 0.00 56 1014.5
20260505151005 19 104 0.0 0.0 0.00 0.00 0.00 54 1014.5
20260505125004 12 329 0.0 0.0 0.00 0.00 0.00 91 1014.4
20260505124004 12 329 0.0 0.0 0.00 0.00 0.00 91 1014.4
20260505122004 11 329 0.0 0.0 0.00 0.00 0.00 92 1014.2
20260505121004 11 329 0.0 0.0 0.00 0.00 0.00 92 1014.2
20260505120005 11 329 0.0 0.0 0.00 0.00 0.00 92 1014.1
20260505115005 10 329 0.0 0.0 0.00 0.00 0.00 92 1014.0
20260505114005 10 329 0.0 0.0 0.00 0.00 0.00 92 1014.1
20260505113005 10 329 0.0 0.0 0.00 0.00 0.00 92 1014.1
20260505111004 10 329 0.0 0.0 0.00 0.00 0.00 91 1013.5
20260505102004 11 329 0.0 0.0 0.00 0.00 0.00 90 1013.4
20260505101005 11 329 0.0 0.0 0.00 0.00 0.00 90 1013.3
20260505100004 11 329 0.0 0.0 0.00 0.00 0.00 89 1013.3
20260505095004 11 329 0.0 0.0 0.00 0.00 0.00 88 1013.4
20260505094004 11 329 0.0 0.0 0.00 0.00 0.00 88 1013.4
20260505093004 11 329 0.0 0.0 0.00 0.00 0.00 87 1013.5
20260505092004 11 329 0.0 0.0 0.00 0.00 0.00 86 1013.5
20260505090005 12 329 0.0 0.0 0.00 0.00 0.00 85 1013.5
20260505084004 12 329 0.0 0.0 0.00 0.00 0.00 84 1013.3
20260505083005 12 329 0.0 0.0 0.00 0.00 0.00 83 1013.2
20260505082005 12 329 0.0 0.0 0.00 0.00 0.00 83 1013.1
20260505081004 12 329 0.0 0.0 0.00 0.00 0.00 82 1013.0
20260505080004 12 329 0.0 0.0 0.00 0.00 0.00 81 1012.7
20260505075004 12 329 0.0 0.0 0.00 0.00 0.00 80 1012.7
20260505072004 13 329 0.0 0.0 0.00 0.00 0.00 77 1012.7
20260505071004 13 329 0.0 0.0 0.00 0.00 0.00 76 1012.7
20260505070004 13 329 0.0 0.0 0.00 0.00 0.00 76 1012.8
20260505064005 14 329 0.0 0.0 0.00 0.00 0.00 75 1012.7
20260505063004 14 329 0.0 0.0 0.00 0.00 0.00 74 1012.8
20260505060004 15 329 0.0 0.0 0.00 0.00 0.00 70 1012.6
20260505055004 15 329 0.0 0.0 0.00 0.00 0.00 69 1012.6
20260505053004 15 329 0.0 0.0 0.00 0.00 0.00 64 1012.4
20260505052004 15 329 0.0 0.0 0.00 0.00 0.00 64 1012.1
20260505051004 16 329 0.0 0.0 0.00 0.00 0.00 65 1012.1
20260505041007 16 329 0.0 0.0 0.00 0.00 0.00 59 1012.1
20260505034007 16 329 0.0 0.0 0.00 0.00 0.00 60 1012.1
20260505033007 16 329 0.0 0.0 0.00 0.00 0.00 60 1012.2
20260505032006 16 329 0.0 0.0 0.00 0.00 0.00 60 1012.3
20260505030007 16 329 0.0 0.0 0.00 0.00 0.00 65 1012.3
20260505024007 16 329 0.0 0.0 0.00 0.00 0.00 69 1012.5
20260505022007 16 329 0.0 0.0 0.00 0.00 0.00 71 1012.5
20260505021007 16 329 0.0 8.0 0.00 0.00 0.00 70 1012.5
20260505020007 16 20 0.0 0.0 0.00 0.00 0.00 71 1012.3
20260505015006 16 20 0.0 0.0 0.00 0.00 0.00 71 1012.3
20260505014006 16 20 0.0 0.0 0.00 0.00 0.00 70 1012.3
20260505013006 17 20 0.0 0.0 0.00 0.00 0.00 69 1012.2
20260505012007 17 20 0.0 0.0 0.00 0.00 0.00 68 1012.1
20260505011007 17 20 0.0 0.0 0.00 0.00 0.00 66 1012.0
20260505010007 17 20 0.0 0.0 0.00 0.00 0.00 65 1011.9
20260505005007 18 20 0.0 0.0 0.00 0.00 0.00 64 1011.8
20260505004007 18 20 0.0 0.0 0.00 0.00 0.00 62 1011.8
20260505003007 18 20 0.0 0.0 0.00 0.00 0.00 60 1011.7
20260505002007 18 20 0.0 0.0 0.00 0.00 0.00 58 1011.7
20260505000006 20 20 0.0 0.0 0.00 0.00 0.00 56 1011.6
20260504235006 20 20 0.0 0.0 0.00 0.00 0.00 55 1011.7
20260504234006 20 20 0.0 0.0 0.00 0.00 0.00 52 1011.6
20260504233007 20 20 0.0 0.0 0.00 0.00 0.00 49 1011.6
20260504232007 21 20 0.0 0.0 0.00 0.00 0.00 47 1011.8
20260504231006 21 20 0.0 0.0 0.00 0.00 0.00 45 1011.7
20260504230006 21 20 1.6 8.0 0.00 0.00 0.00 43 1011.7
20260504225006 21 0 0.0 0.0 0.00 0.00 0.00 43 1011.7
20260504224006 21 0 0.0 11.3 0.00 0.00 0.00 41 1011.7
20260504223006 22 52 1.6 9.7 0.00 0.00 0.00 40 1011.8
20260504221006 22 78 0.0 11.3 0.00 0.00 0.00 38 1011.7
20260504220006 23 186 3.2 14.5 0.00 0.00 0.00 38 1011.8
20260504215006 23 62 1.6 14.5 0.00 0.00 0.00 38 1011.8
20260504214006 23 72 0.0 4.8 0.00 0.00 0.00 38 1011.7
20260504212006 23 70 0.0 8.0 0.00 0.00 0.00 37 1011.9
20260504211006 24 83 1.6 11.3 0.00 0.00 0.00 38 1011.8
20260504210006 24 139 0.0 8.0 0.00 0.00 0.00 36 1011.9
20260504205006 25 313 0.0 8.0 0.00 0.00 0.00 36 1012.0
20260504204006 25 314 3.2 8.0 0.00 0.00 0.00 36 1012.2
20260504202006 25 86 0.0 14.5 0.00 0.00 0.00 39 1012.4
20260504201005 25 215 1.6 8.0 0.00 0.00 0.00 39 1012.5
20260504200006 25 90 0.0 4.8 0.00 0.00 0.00 40 1012.6
20260504195005 25 90 1.6 8.0 0.00 0.00 0.00 38 1012.8
20260504194006 25 21 1.6 12.9 0.00 0.00 0.00 37 1012.7
20260504193006 25 58 0.0 8.0 0.00 0.00 0.00 38 1012.9
20260504192006 25 90 1.6 14.5 0.00 0.00 0.00 38 1013.1
20260504191006 24 11 0.0 8.0 0.00 0.00 0.00 41 1013.4
20260504190006 24 86 0.0 14.5 0.00 0.00 0.00 39 1013.5
20260504185006 24 68 0.0 9.7 0.00 0.00 0.00 40 1013.5
20260504184006 24 122 1.6 9.7 0.00 0.00 0.00 40 1013.9
20260504182006 23 105 1.6 14.5 0.00 0.00 0.00 41 1014.0
20260504181005 23 313 1.6 4.8 0.00 0.00 0.00 41 1014.1
20260504175006 22 181 0.0 4.8 0.00 0.00 0.00 42 1014.4
20260504174005 22 31 0.0 12.9 0.00 0.00 0.00 42 1014.4
20260504173006 22 325 3.2 8.0 0.00 0.00 0.00 42 1014.7
20260504172006 22 123 0.0 12.9 0.00 0.00 0.00 42 1014.8
20260504171005 21 116 1.6 11.3 0.00 0.00 0.00 42 1015.0